Location: Penticton
(49.5000°N, 119.5830°W)
Time: 13:41:34
(UTC-07:00)

Daily predictions for brighter satellites

Satellite Brightness Start Highest point End
(mag) Time Altitude Azimuth Time Altitude Azimuth Time Altitude Azimuth
ASTEX 1 3.5 21:18:12 10° SSE 21:23:02 63° E 21:27:53 10° N
MetOp-B 4.3 21:22:40 10° SSE 21:27:57 64° ENE 21:33:16 10° N
CRYOSAT 2 4.5 21:24:01 10° SSE 21:28:48 63° E 21:33:37 10° N
Okean 1-7 Rocket 4.2 21:25:33 10° SSE 21:29:41 38° E 21:33:52 10° NNE
ISS -1.8 21:28:51 10° SSE 21:29:58 11° SE 21:31:06 10° ESE
SPOT 1/Viking Rocket 4.3 21:25:39 10° SE 21:30:26 40° ENE 21:35:13 10° N
Cosmos 1666 2.6 21:28:07 10° N 21:31:55 89° E 21:35:39 10° S
Cosmos 1697 Rocket 4.3 21:27:32 10° NNW 21:32:02 24° NE 21:36:32 10° E
Meteor 2-9 Rocket 4.2 21:29:29 10° N 21:34:57 77° ENE 21:40:31 10° SSE
Cosmos 1238 Rocket 4.3 21:28:56 10° SSE 21:35:29 57° E 21:41:50 10° NNE
Aureole 3 Rocket 3.6 21:32:21 10° S 21:38:40 79° E 21:43:08 10° NNE
Aureole 1 Rocket 2.7 21:37:07 10° S 21:40:08 37° ESE 21:42:56 10° NE
Cosmos 2228 4.5 21:36:40 10° NNE 21:40:11 24° ENE 21:43:41 10° ESE
Cosmos 1437 3.8 21:39:46 10° SSW 21:42:55 49° WNW 21:46:05 10° N
Cosmos 1371 Rocket 4.2 21:37:49 10° NNW 21:43:10 69° ENE 21:48:27 10° SSE
DNEPR-1 R/B 4.1 21:40:14 10° NW 21:44:20 52° WSW 21:48:43 10° SSE
Meteor 1-29 4.0 21:42:04 10° N 21:45:22 49° WNW 21:48:38 10° SSW
Cosmos 921 Rocket 4.0 21:41:31 10° N 21:45:43 36° ENE 21:49:41 11° SE
Meteor 2-4 Rocket 3.8 21:41:05 10° S 21:46:41 71° E 21:52:30 10° NNE
Lacrosse 5 rocket 3.4 21:46:05 10° WNW 21:50:15 33° N 21:54:29 10° ENE
Cosmos 923 Rocket 4.1 21:45:27 10° SSW 21:50:48 90° WNW 21:56:09 10° NNE
NOSS 2-2 (E) 3.6 21:46:39 10° SW 21:50:48 84° SE 21:55:51 10° NE
Cosmos 1606 Rocket 3.8 21:47:44 10° N 21:51:59 53° ENE 21:55:59 11° SSE
Cosmos 1833 Rocket 4.4 21:53:01 10° SE 21:55:38 14° E 21:58:27 10° ENE
USA 245 2.1 21:53:35 12° SSE 21:55:58 72° ENE 21:58:20 10° N
YAOGAN 6 4.1 21:52:58 10° SSW 21:56:09 32° W 21:59:22 10° NNW
YAOGAN 11 4.2 21:56:26 10° SSE 22:00:44 79° WSW 22:05:05 10° NNW
Meteor 1-4 Rocket 4.3 21:59:30 10° NNE 22:02:18 20° ENE 22:04:39 12° ESE
Cosmos 1726 Rocket 3.7 21:58:38 10° N 22:02:55 58° ENE 22:06:36 13° SSE
Cosmos 2181 Rocket 4.5 21:58:08 10° SSE 22:04:08 45° E 22:10:05 10° NNE
SL-24 DEB 4.4 22:00:07 11° SSE 22:04:28 60° E 22:09:03 10° N
Cosmos 405 Rocket 3.8 22:01:02 10° SSW 22:04:39 46° WNW 22:08:24 10° N
Cosmos 1515 4.4 22:02:59 13° SSE 22:05:57 36° E 22:09:29 10° NNE
ERS-1 Rocket 3.9 22:03:05 10° S 22:07:53 46° W 22:12:44 10° NNW
TELKOM 3 3.2 22:05:50 10° W 22:08:08 65° SSW 22:10:31 15° ESE
Cosmos 2058 Rocket 3.4 22:05:23 10° N 22:09:42 51° ENE 22:13:09 15° SSE
Cosmos 1818 4.3 22:09:43 10° SW 22:15:05 59° NW 22:20:30 10° NE
Meteor 1-23 Rocket 4.2 22:10:41 10° S 22:16:16 89° WNW 22:21:56 10° NNE
CARTOSAT-1 4.2 22:13:46 16° SE 22:16:57 44° ENE 22:21:05 10° N
Cosmos 1441 Rocket 3.6 22:13:28 10° SSW 22:17:10 62° WNW 22:20:54 10° N
Cosmos 1025 Rocket 3.1 22:13:31 10° SSW 22:17:47 82° W 22:22:05 10° N
H-2A R/B 1.9 22:14:06 13° SSE 22:18:28 84° ENE 22:23:33 10° NNW
USA 267 4.5 22:14:49 10° E 22:19:03 18° ESE 22:21:19 15° SSE
Cosmos 1980 Rocket 3.5 22:14:09 10° NNW 22:19:10 30° NE 22:24:06 10° ESE
Meteor 1-15 Rocket 4.5 22:15:21 10° NNW 22:20:56 68° W 22:26:27 10° S
Cosmos 192 4.3 22:16:34 10° SSW 22:21:29 88° WNW 22:26:25 10° NNE
Cosmos 2112 Rocket 4.2 22:18:24 10° SSW 22:23:37 74° WNW 22:28:50 10° NNE
DMSP B5D2-2 4.5 22:19:17 10° NNE 22:24:22 45° E 22:28:28 15° SSE
Cosmos 2322 Rocket 4.3 22:23:11 10° N 22:27:03 18° NE 22:30:54 10° ENE
Cosmos 1624 Rocket 4.3 22:22:01 10° NNW 22:27:15 67° WSW 22:31:37 15° S
SL-27 R/B 3.0 22:24:33 10° SSW 22:28:10 62° WNW 22:31:49 10° NNE
SeaSat 1 4.2 22:27:15 10° E 22:31:08 24° NE 22:35:01 10° N
NOSS 2-2 (D) 4.4 22:29:52 10° WSW 22:33:58 55° NW 22:39:00 10° NE
SL-08 RB Rocket 4.3 22:30:58 12° S 22:35:01 51° W 22:39:25 10° NNW
CENTAUR R/B 4.5 22:29:13 10° WNW 22:35:44 29° WSW 22:42:34 10° SSW
Iridium 43 3.1 22:34:44 10° N 22:36:59 84° E 22:37:37 40° S
CZ-4C R/B 4.5 22:37:42 18° ESE 22:39:29 26° ENE 22:42:31 10° N
ARGOS 4.1 22:36:50 10° S 22:41:58 43° W 22:47:09 10° NNW
H-2A R/B 2.2 22:39:03 21° SSE 22:42:06 77° ENE 22:46:39 10° NNW
USA 229 DEB 4.3 22:36:01 10° NW 22:42:59 56° NE 22:49:37 12° ESE
Landsat 7 3.9 22:39:26 18° S 22:43:01 77° WSW 22:47:49 10° NNW
USA 229 4.3 22:36:07 10° NW 22:43:05 55° NE 22:49:44 12° ESE
COSMOS 2406 4.2 22:38:21 10° SW 22:43:55 50° NW 22:49:29 10° NNE
SPOT 5 4.0 22:41:41 10° SSW 22:45:36 33° W 22:49:34 10° NNW
Cosmos 2056 Rocket 4.1 22:40:58 10° NNW 22:45:59 50° WSW 22:49:51 16° S
SL-8 Rocket 4.0 22:41:16 10° N 22:47:33 88° E 22:52:21 18° S
Cosmos 2278 3.8 22:42:56 10° NNW 22:48:39 71° WSW 22:52:35 20° SSE
Cosmos 2366 rocket 4.0 22:45:28 10° N 22:51:40 73° E 22:55:56 21° SSE
Tiangong 2 3.5 22:49:49 10° SW 22:50:10 12° SSW 22:50:10 12° SSW
Cosmos 1626 Rocket 4.0 22:51:28 25° SSE 22:53:34 43° E 22:57:41 10° NNE
Cosmos 2082 Rocket 2.6 22:51:36 20° S 22:55:09 43° ESE 23:00:28 10° NE
Meteor 2-21 4.4 22:49:07 10° N 22:55:12 77° E 22:59:19 22° SSE
CZ-4B R/B 4.0 22:51:40 10° NNE 22:56:26 41° E 22:59:03 24° SSE
COSMOS 2487 2.6 22:55:03 28° S 22:56:41 55° ESE 23:00:12 10° NNE
USA 234 3.9 22:50:45 10° E 22:57:07 56° NNE 23:03:28 10° WNW
Cosmos 1437 Rocket 4.5 22:53:57 10° NW 22:57:12 27° W 23:00:20 11° SSW
Terra 1.9 22:54:57 22° S 22:58:05 77° WSW 23:02:52 10° NNW
Cosmos 1953 3.9 23:01:32 10° NNE 23:04:56 25° ENE 23:06:41 19° ESE
Cosmos 1842 4.5 23:04:24 24° ESE 23:05:25 27° E 23:08:47 10° NNE
CZ-2C R/B 4.4 23:02:08 10° NE 23:05:48 17° E 23:07:50 15° ESE
ISS -3.8 23:02:40 10° SW 23:05:52 53° SSE 23:09:06 10° ENE
Spot 4 3.9 23:03:34 26° SSE 23:06:17 73° ENE 23:11:06 10° N
Cosmos 2369 4.2 23:01:40 10° NW 23:07:14 53° WSW 23:10:51 21° S
Cosmos 1420 Rocket 4.0 23:01:59 10° NNW 23:07:18 77° ENE 23:10:18 26° SSE
IGS 5A 3.9 23:09:40 24° S 23:12:00 56° W 23:16:08 10° NNW
Iridium 2 4.0 23:10:19 10° N 23:14:03 52° E 23:15:22 34° SE
Cosmos 1271 Rocket 3.1 23:10:45 10° N 23:14:33 51° ENE 23:16:00 32° SE
Cosmos 1697 Rocket 2.7 23:11:03 10° NNW 23:16:42 81° WSW 23:19:52 27° SSE
Cosmos 967 Rocket 4.4 23:10:29 10° SSW 23:16:45 86° SE 23:23:05 10° NE
SL-16 R/B 3.6 23:12:08 10° NNW 23:17:11 31° NE 23:21:49 12° ESE
Cosmos 2228 4.1 23:13:53 10° NNW 23:17:56 39° W 23:20:39 18° SSW
Cosmos 1452 Rocket 3.8 23:13:05 10° NNW 23:18:18 62° WSW 23:21:14 26° S
DELTA 2 DEB (DPAF) 4.1 23:17:06 30° SSE 23:19:18 85° ENE 23:23:49 10° NNW
deb Chang Zheng 4 3.6 23:19:08 10° NNE 23:23:29 80° WNW 23:26:07 23° SSW
Cosmos 1602 Rocket 3.5 23:24:52 29° S 23:27:05 90° SW 23:31:27 10° N
Cosmos 2218 Rocket 4.4 23:21:59 10° NNW 23:28:00 58° W 23:32:14 20° SSW
ATLAS CENTAUR R/B 3.2 23:25:43 10° NNW 23:28:46 23° NE 23:31:42 10° E
BREEZE-M DEB (TANK) 4.2 23:30:06 17° ESE 23:30:06 17° ESE 23:32:16 10° E
Lacrosse 5 rocket 3.0 23:26:04 10° NW 23:30:25 39° NNE 23:34:47 10° E
Cosmos 1766 3.4 23:30:42 10° NNW 23:34:37 68° W 23:36:03 36° SSW
Cosmos 1656 4.3 23:31:16 10° NW 23:36:23 42° WSW 23:39:09 24° SSW
Meteor 1-4 Rocket 3.9 23:34:16 10° NNW 23:37:33 32° W 23:38:57 23° SW
Cosmos 1833 Rocket 2.6 23:34:39 20° SSW 23:38:39 81° ESE 23:44:19 10° NNE
CZ-4 R/B 4.1 23:36:36 10° N 23:41:37 72° WNW 23:44:55 22° SSW
Cosmos 1758 3.4 23:40:14 10° N 23:44:14 67° ENE 23:45:26 42° SE
Cosmos-2242 4.2 23:40:46 10° N 23:44:39 31° ENE 23:46:17 24° ESE
Cosmos 1934 Rocket 4.5 23:39:25 10° N 23:45:39 52° ENE 23:49:06 26° SE
Meteor 1-21 4.2 23:44:22 28° S 23:47:33 85° E 23:53:20 10° NNE
Cosmos 468 4.4 23:44:48 25° SSW 23:47:53 86° ESE 23:53:14 10° NNE
Cosmos 1470 3.6 23:48:16 10° N 23:52:03 40° ENE 23:53:13 32° ESE
